SCP
0 0 0 0 0 0 0 0 0 0 0 0 0 0 0 0 0 0 0 0 0 0 0 0 0 0 0 0 0 0 0 0 0 0 -0 0 0 0
0 0 0 0 0 0 0 0 0 0 0 0 0 0 0 0 0 0 0 0 0 0 0 0 0 0 0 0 0 0 0 0 0 -0 0 0 -0 0
0 0 0 0 0 0 0 0 0 0 0 0 0 0 0 0 0 0 0 0 0 0 0 0 0 -0 0 0 0 0 0 0 0 -0 -0 -0 -0 -0
0 0 0 0 0 0 0 0 0 0 0 0 0 0 0 0 0 0 0 0 0 0 0 0 0 0 0 0 0 0 0 -0 0 0 -0 -0 -0 -0
0 0 0 0 0 0 0 0 0 0 0 0 0 0 0 0 0 0 0 0 0 0 0 0 0 0 0 0 0 0 0 0 0 0 -0 -0 -0 -0
0 0 0 0 0 0 0 0 0 0 0 0 0 0 0 0 0 0 0 0 0 0 0 0 0 0 0 0 0 0 0 0 0 0 0 -0 -0 -0
0 0 0 0 0 0 0 0 0 0 0 0 0 0 0 0 0 0 0 0 0 0 0 0 0 0 0 0 0 0 0 0 0 0 0 0 0 0
0 0 0 0 0 0 0 0 0 0 0 0 0 0 0 0 0 0 0 0 0 0 0 0 0 0 0 0 0 0 0 0 0 0 0 0 0 0
0 0 0 0 0 0 0 0 0 0 0 0 0 0 0 0 0 0 0 0 0 0 0 0 0 0 0 0 0 0 0 0 0 0 0 0 0 0
0 0 0 0 0 0 0 0 0 0 0 0 0 0 0 0 0 0 0 0 0 0 0 0 0 0 0 0 0 0 0 0 0 0 0 0 0 0
0 0 0 0 0 0 0 0 0 0 0 0 0 0 0 0 0 0 0 0 0 0 0 0 0 0 0 0 0 0 0 0 0 0 0 0 0 0
0 0 0 0 0 0 0 0 0 0 0 0 0 0 0 0 0 0 0 0 0 0 0 0 0 0 0 0 0 0 0 0 0 0 0 0 0 0
0 0 0 0 0 0 0 0 0 0 0 0 0 0 0 0 0 0 0 0 0 0 0 0 0 0 0 0 0 0 0 0 0 0 0 0 0 0
0 0 0 0 0 0 0 0 0 0 0 0 0 0 0 0 0 0 0 0 0 0 0 0 0 0 0 0 0 0 0 0 0 0 0 0 0 0
0 0 0 0 0 0 0 0 0 0 0 0 0 0 0 0 0 0 0 0 0 0 0 0 0 0 0 0 0 0 -0 0 0 0 0 0 0 0
0 0 0 0 0 0 0 0 0 0 0 0 0 0 0 0 0 0 0 0 0 0 0 0 0 -0 0 0 0 0 0 -0 0 0 0 0 0 0
0 0 0 0 0 0 0 0 0 0 0 0 0 0 0 0 0 0 0 0 0 0 0 0 0 0 0 -0 0 0 0 0 0 0 0 0 0 0
0 0 0 0 0 0 0 0 0 0 0 0 0 0 0 0 0 0 0 0 0 0 0 -0 -0 -0 -0 -0 0 0 0 0 0 0 0 0 0 0
0 0 0 0 0 0 0 0 0 0 0 0 0 0 0 0 0 0 0 0 0 0 0 -0 0 0 0 0 -0 0 0 0 0 0 0 -0 0 0
0 0 0 0 0 0 0 0 0 0 0 0 0 0 0 0 0 0 0 0 0 0 0 0 0 0 0 0 0 -0 0 0 0 0 0 0 0 -0
0 0 0 0 0 0 0 0 0 0 0 0 0 0 0 0 0 0 0 0 0 0 0 0 0 0 0 0 0 0 0 -0 0 0 0 0 0 0
0 0 0 0 0 0 0 0 0 0 0 0 0 0 0 0 0 0 0 0 0 0 0 0 0 0 0 0 0 0 0 0 0 0 -0 -0 -0 -0
0 0 0 0 0 0 0 0 0 0 0 0 0 0 0 0 0 0 0 0 0 0 0 0 0 0 0 0 0 0 0 0 0 0 0 0 0 0
Wind_Speed_500mb
69 60 57 53 47 41 40 44 49 46 48 41 34 24 12 6 5 7 5 11 20 27 36 48 59 65 67 69 71 69 67 63 59 57 56 48 50 53
70 63 61 58 55 50 41 44 43 44 49 48 40 26 16 7 9 5 4 7 14 23 31 43 54 63 65 66 72 71 70 68 64 60 56 51 49 54
66 67 64 60 61 57 46 45 45 45 42 41 43 30 18 9 11 10 8 4 8 17 25 37 48 59 62 64 72 73 70 71 70 64 59 54 48 47
68 73 66 63 64 58 47 42 42 39 40 42 44 32 19 12 12 11 9 6 2 11 19 30 43 52 60 62 70 75 73 69 72 71 67 59 53 49
78 77 71 69 67 58 48 43 40 33 33 38 41 31 19 17 20 19 12 9 5 4 13 22 36 44 53 61 65 74 71 67 68 70 69 62 54 48
85 79 68 74 64 58 48 42 37 34 35 33 34 29 21 21 23 18 14 10 8 4 6 15 29 37 45 55 64 75 71 66 64 65 67 66 57 52
79 66 70 68 57 53 50 44 39 37 41 38 37 31 26 29 29 21 16 14 7 11 1 10 17 30 37 48 59 70 72 65 62 62 62 63 61 51
74 71 71 62 57 51 41 35 32 36 43 41 36 31 27 33 31 23 18 16 8 8 2 4 12 21 33 43 49 62 68 64 62 60 59 60 60 58
78 76 74 66 62 54 47 38 35 31 21 19 27 23 26 31 28 23 18 10 11 7 5 7 6 22 32 38 43 55 62 63 61 59 59 57 61 60
77 75 74 71 65 59 53 47 44 38 33 29 22 19 24 26 20 16 15 9 10 7 6 12 7 16 25 33 40 50 55 60 64 65 62 61 62 66
73 70 72 70 64 56 51 52 52 46 38 33 28 25 25 24 19 15 10 7 12 11 13 13 13 4 18 26 34 44 50 54 63 68 72 67 69 72
75 71 69 64 62 56 50 55 53 49 46 42 35 30 26 25 22 15 6 14 25 24 12 6 4 16 2 20 28 43 45 51 58 67 73 81 78 86
81 79 71 63 59 53 48 46 45 52 47 41 39 37 33 29 31 33 21 13 21 28 21 12 11 12 12 9 22 42 43 49 60 66 69 78 88 95
89 82 72 63 57 51 46 46 51 54 50 46 45 43 39 35 36 33 28 23 25 29 29 26 20 18 18 17 11 25 41 48 58 67 73 78 81 86
78 76 70 64 58 53 52 57 58 55 52 50 47 43 38 33 32 30 26 23 25 29 31 33 31 25 24 30 32 27 40 49 56 62 68 76 86 93
65 71 72 69 62 63 61 61 57 52 49 45 42 43 42 36 29 23 23 23 21 29 30 32 35 34 36 38 40 46 47 40 50 57 60 68 74 82
85 84 81 77 73 71 67 64 57 50 47 43 45 50 44 38 33 26 19 20 15 22 25 25 29 36 41 38 42 43 43 44 46 50 55 62 69 72
88 92 87 81 83 76 74 69 62 53 50 43 40 47 44 45 39 31 23 18 15 21 21 19 22 27 34 39 37 37 37 37 39 43 51 59 65 65
98 91 84 83 82 76 71 69 66 54 51 44 44 44 41 39 39 31 28 22 24 24 23 19 16 13 21 30 28 27 28 31 32 38 47 56 57 58
85 79 79 78 79 74 68 63 60 53 56 49 49 46 40 38 39 33 29 23 27 31 26 22 17 15 15 19 24 21 20 23 30 36 38 39 47 48
82 79 74 75 74 69 65 58 60 61 59 51 51 50 45 39 33 31 28 20 25 35 27 24 18 16 13 15 17 17 16 17 25 31 38 40 30 51
76 68 67 66 66 67 63 61 60 59 55 50 50 51 48 43 31 37 34 25 25 29 26 28 22 19 16 12 15 16 15 16 21 29 37 44 44 40
62 56 56 58 61 62 65 63 58 54 50 47 47 46 49 45 32 36 36 27 30 35 31 30 25 19 17 17 16 14 13 12 13 21 30 32 31 30
Wind_Direction_500mb
239 241 240 236 231 231 230 232 227 202 205 210 213 213 220 283 282 347 346 360 8 8 12 16 18 14 18 20 21 20 17 16 18 17 15 16 20 25
235 239 233 233 232 229 231 232 233 235 209 217 214 203 208 263 254 287 281 342 9 9 13 15 17 15 17 19 21 19 18 17 17 18 16 15 15 20
231 235 231 231 230 227 231 234 228 225 227 212 204 200 209 237 240 227 225 290 2 10 13 15 16 13 16 18 22 18 16 16 19 19 18 15 16 14
232 231 226 227 225 230 233 225 220 222 223 207 195 200 209 222 223 217 221 240 305 9 10 14 15 9 15 18 22 19 17 13 16 18 17 16 14 14
232 227 222 222 222 227 223 216 214 212 210 213 200 198 203 211 211 200 210 213 230 4 10 12 9 8 12 16 22 20 17 14 14 16 16 15 14 14
232 229 224 222 224 224 216 212 209 202 194 195 196 193 204 200 202 214 219 210 228 195 1 11 7 5 10 14 18 17 19 17 16 17 15 13 14 14
225 219 218 220 225 223 213 208 206 198 194 189 191 192 202 207 209 217 217 213 237 213 250 11 357 9 6 9 13 14 17 21 19 18 18 15 14 16
215 208 210 213 213 209 208 210 209 204 196 192 198 202 213 210 210 218 218 212 218 205 202 20 356 6 10 13 10 12 15 25 25 24 23 20 20 20
206 203 204 204 204 201 196 196 193 196 216 226 211 216 218 208 201 202 203 211 214 196 192 179 29 11 15 17 13 15 18 28 31 31 31 29 28 28
204 204 206 201 202 199 195 191 193 192 192 198 212 220 200 200 188 194 196 184 170 170 201 168 114 18 6 13 20 18 26 28 35 37 36 38 40 38
202 205 205 201 199 198 193 186 185 186 187 193 188 184 186 190 188 188 193 178 163 158 194 223 222 357 357 15 26 23 31 36 38 39 39 39 44 45
199 202 200 201 198 195 194 193 190 188 184 175 172 172 175 172 173 177 173 167 131 98 94 153 239 208 245 30 32 31 39 42 43 42 39 39 41 45
196 193 193 195 195 192 195 196 195 175 168 166 158 149 144 142 144 145 147 146 113 97 76 81 96 131 155 86 40 34 46 46 45 46 45 43 40 44
192 191 188 188 190 185 183 183 180 170 166 160 155 150 149 146 138 138 134 125 103 85 79 75 87 101 94 96 47 39 55 51 48 43 41 41 45 47
194 189 184 180 176 171 173 176 175 171 166 161 157 156 157 158 146 140 132 122 106 88 79 73 70 88 89 81 69 79 67 56 51 46 42 40 39 38
192 186 180 172 171 167 169 176 175 173 170 166 160 163 166 170 163 154 144 132 120 101 86 78 76 82 90 83 76 74 70 65 52 48 44 45 43 41
184 179 174 172 171 172 175 177 176 174 176 169 173 179 181 180 182 174 169 148 130 118 109 99 93 90 88 83 80 75 69 61 53 49 48 45 44 40
182 178 178 178 178 176 178 180 182 181 182 177 181 184 186 183 187 182 191 173 156 140 135 122 114 104 97 88 80 75 69 63 54 48 46 45 44 40
187 184 182 183 183 183 183 183 182 184 186 186 183 183 186 185 188 180 186 184 169 158 147 137 129 126 109 97 89 74 65 58 54 50 44 41 40 39
185 184 188 189 187 186 185 186 188 185 186 189 190 189 186 186 182 179 182 180 174 166 154 148 141 131 111 111 99 86 68 52 42 43 44 42 42 40
186 190 190 190 187 188 188 190 189 187 187 191 195 198 194 192 184 185 183 180 172 169 159 151 144 148 129 114 120 94 75 61 44 37 35 40 35 28
188 191 190 190 187 186 187 186 187 188 190 194 197 199 200 199 194 192 192 183 170 172 168 162 145 144 149 141 130 107 89 63 41 35 34 34 33 37
178 178 181 183 186 183 187 189 192 195 197 198 198 201 201 194 199 201 195 184 178 173 171 168 166 147 150 140 143 126 93 72 41 27 41 37 33 25
Wind_Speed_850mb
69 60 57 53 47 41 40 44 49 46 48 41 34 24 12 6 5 7 5 11 20 27 36 48 59 65 67 69 71 69 67 63 59 57 56 48 50 53
70 63 61 58 55 50 41 44 43 44 49 48 40 26 16 7 9 5 4 7 14 23 31 43 54 63 65 66 72 71 70 68 64 60 56 51 49 54
66 67 64 60 61 57 46 45 45 45 42 41 43 30 18 9 11 10 8 4 8 17 25 37 48 59 62 64 72 73 70 71 70 64 59 54 48 47
68 73 66 63 64 58 47 42 42 39 40 42 44 32 19 12 12 11 9 6 2 11 19 30 43 52 60 62 70 75 73 69 72 71 67 59 53 49
78 77 71 69 67 58 48 43 40 33 33 38 41 31 19 17 20 19 12 9 5 4 13 22 36 44 53 61 65 74 71 67 68 70 69 62 54 48
85 79 68 74 64 58 48 42 37 34 35 33 34 29 21 21 23 18 14 10 8 4 6 15 29 37 45 55 64 75 71 66 64 65 67 66 57 52
79 66 70 68 57 53 50 44 39 37 41 38 37 31 26 29 29 21 16 14 7 11 1 10 17 30 37 48 59 70 72 65 62 62 62 63 61 51
74 71 71 62 57 51 41 35 32 36 43 41 36 31 27 33 31 23 18 16 8 8 2 4 12 21 33 43 49 62 68 64 62 60 59 60 60 58
78 76 74 66 62 54 47 38 35 31 21 19 27 23 26 31 28 23 18 10 11 7 5 7 6 22 32 38 43 55 62 63 61 59 59 57 61 60
77 75 74 71 65 59 53 47 44 38 33 29 22 19 24 26 20 16 15 9 10 7 6 12 7 16 25 33 40 50 55 60 64 65 62 61 62 66
73 70 72 70 64 56 51 52 52 46 38 33 28 25 25 24 19 15 10 7 12 11 13 13 13 4 18 26 34 44 50 54 63 68 72 67 69 72
75 71 69 64 62 56 50 55 53 49 46 42 35 30 26 25 22 15 6 14 25 24 12 6 4 16 2 20 28 43 45 51 58 67 73 81 78 86
81 79 71 63 59 53 48 46 45 52 47 41 39 37 33 29 31 33 21 13 21 28 21 12 11 12 12 9 22 42 43 49 60 66 69 78 88 95
89 82 72 63 57 51 46 46 51 54 50 46 45 43 39 35 36 33 28 23 25 29 29 26 20 18 18 17 11 25 41 48 58 67 73 78 81 86
78 76 70 64 58 53 52 57 58 55 52 50 47 43 38 33 32 30 26 23 25 29 31 33 31 25 24 30 32 27 40 49 56 62 68 76 86 93
65 71 72 69 62 63 61 61 57 52 49 45 42 43 42 36 29 23 23 23 21 29 30 32 35 34 36 38 40 46 47 40 50 57 60 68 74 82
85 84 81 77 73 71 67 64 57 50 47 43 45 50 44 38 33 26 19 20 15 22 25 25 29 36 41 38 42 43 43 44 46 50 55 62 69 72
88 92 87 81 83 76 74 69 62 53 50 43 40 47 44 45 39 31 23 18 15 21 21 19 22 27 34 39 37 37 37 37 39 43 51 59 65 65
98 91 84 83 82 76 71 69 66 54 51 44 44 44 41 39 39 31 28 22 24 24 23 19 16 13 21 30 28 27 28 31 32 38 47 56 57 58
85 79 79 78 79 74 68 63 60 53 56 49 49 46 40 38 39 33 29 23 27 31 26 22 17 15 15 19 24 21 20 23 30 36 38 39 47 48
82 79 74 75 74 69 65 58 60 61 59 51 51 50 45 39 33 31 28 20 25 35 27 24 18 16 13 15 17 17 16 17 25 31 38 40 30 51
76 68 67 66 66 67 63 61 60 59 55 50 50 51 48 43 31 37 34 25 25 29 26 28 22 19 16 12 15 16 15 16 21 29 37 44 44 40
62 56 56 58 61 62 65 63 58 54 50 47 47 46 49 45 32 36 36 27 30 35 31 30 25 19 17 17 16 14 13 12 13 21 30 32 31 30
Wind_Direction_850mb
239 241 240 236 231 231 230 232 227 202 205 210 213 213 220 283 282 347 346 360 8 8 12 16 18 14 18 20 21 20 17 16 18 17 15 16 20 25
235 239 233 233 232 229 231 232 233 235 209 217 214 203 208 263 254 287 281 342 9 9 13 15 17 15 17 19 21 19 18 17 17 18 16 15 15 20
231 235 231 231 230 227 231 234 228 225 227 212 204 200 209 237 240 227 225 290 2 10 13 15 16 13 16 18 22 18 16 16 19 19 18 15 16 14
232 231 226 227 225 230 233 225 220 222 223 207 195 200 209 222 223 217 221 240 305 9 10 14 15 9 15 18 22 19 17 13 16 18 17 16 14 14
232 227 222 222 222 227 223 216 214 212 210 213 200 198 203 211 211 200 210 213 230 4 10 12 9 8 12 16 22 20 17 14 14 16 16 15 14 14
232 229 224 222 224 224 216 212 209 202 194 195 196 193 204 200 202 214 219 210 228 195 1 11 7 5 10 14 18 17 19 17 16 17 15 13 14 14
225 219 218 220 225 223 213 208 206 198 194 189 191 192 202 207 209 217 217 213 237 213 250 11 357 9 6 9 13 14 17 21 19 18 18 15 14 16
215 208 210 213 213 209 208 210 209 204 196 192 198 202 213 210 210 218 218 212 218 205 202 20 356 6 10 13 10 12 15 25 25 24 23 20 20 20
206 203 204 204 204 201 196 196 193 196 216 226 211 216 218 208 201 202 203 211 214 196 192 179 29 11 15 17 13 15 18 28 31 31 31 29 28 28
204 204 206 201 202 199 195 191 193 192 192 198 212 220 200 200 188 194 196 184 170 170 201 168 114 18 6 13 20 18 26 28 35 37 36 38 40 38
202 205 205 201 199 198 193 186 185 186 187 193 188 184 186 190 188 188 193 178 163 158 194 223 222 357 357 15 26 23 31 36 38 39 39 39 44 45
199 202 200 201 198 195 194 193 190 188 184 175 172 172 175 172 173 177 173 167 131 98 94 153 239 208 245 30 32 31 39 42 43 42 39 39 41 45
196 193 193 195 195 192 195 196 195 175 168 166 158 149 144 142 144 145 147 146 113 97 76 81 96 131 155 86 40 34 46 46 45 46 45 43 40 44
192 191 188 188 190 185 183 183 180 170 166 160 155 150 149 146 138 138 134 125 103 85 79 75 87 101 94 96 47 39 55 51 48 43 41 41 45 47
194 189 184 180 176 171 173 176 175 171 166 161 157 156 157 158 146 140 132 122 106 88 79 73 70 88 89 81 69 79 67 56 51 46 42 40 39 38
192 186 180 172 171 167 169 176 175 173 170 166 160 163 166 170 163 154 144 132 120 101 86 78 76 82 90 83 76 74 70 65 52 48 44 45 43 41
184 179 174 172 171 172 175 177 176 174 176 169 173 179 181 180 182 174 169 148 130 118 109 99 93 90 88 83 80 75 69 61 53 49 48 45 44 40
182 178 178 178 178 176 178 180 182 181 182 177 181 184 186 183 187 182 191 173 156 140 135 122 114 104 97 88 80 75 69 63 54 48 46 45 44 40
187 184 182 183 183 183 183 183 182 184 186 186 183 183 186 185 188 180 186 184 169 158 147 137 129 126 109 97 89 74 65 58 54 50 44 41 40 39
185 184 188 189 187 186 185 186 188 185 186 189 190 189 186 186 182 179 182 180 174 166 154 148 141 131 111 111 99 86 68 52 42 43 44 42 42 40
186 190 190 190 187 188 188 190 189 187 187 191 195 198 194 192 184 185 183 180 172 169 159 151 144 148 129 114 120 94 75 61 44 37 35 40 35 28
188 191 190 190 187 186 187 186 187 188 190 194 197 199 200 199 194 192 192 183 170 172 168 162 145 144 149 141 130 107 89 63 41 35 34 34 33 37
178 178 181 183 186 183 187 189 192 195 197 198 198 201 201 194 199 201 195 184 178 173 171 168 166 147 150 140 143 126 93 72 41 27 41 37 33 25